Overview Statistics Trail Chart Weather Telemetry Raw packets
 

This is the latest recevied weather packets stored in our database for station/object SV9TNF-52. If no packets are shown the sender has not sent any weather packets the latest 10 day(s).

<< 90 91 92 93 94 95 96 >>
Time Temp. Humidity Pressure Rain* Wind** Luminosity Snow
1788012412 28.33° C 54% 1021.7 hPa 0 mm 5.36 m/s, 30° - -
1788012112 27.78° C 55% 1021.7 hPa 0 mm 5.81 m/s, 112° - -
1788011812 27.78° C 55% 1021.7 hPa 0 mm 15.2 m/s, 43° - -
1788011512 28.33° C 55% 1021.7 hPa 0 mm 2.68 m/s, 344° - -
1788011212 28.33° C 56% 1021.7 hPa 0 mm 4.02 m/s, 107° - -
1788010912 27.22° C 57% 1021.7 hPa 0 mm 9.39 m/s, 355° - -
1788010612 28.33° C 53% 1021.7 hPa 0 mm 4.92 m/s, 339° - -
1788010312 28.33° C 55% 1021.7 hPa 0 mm 4.47 m/s, 82° - -
1788010012 28.33° C 53% 1021.7 hPa 0 mm 8.05 m/s, 87° - -
1788009712 28.33° C 55% 1021.7 hPa 0 mm 4.92 m/s, 95° - -
1788009412 27.78° C 51% 1021.7 hPa 0 mm 4.02 m/s, 97° - -
1788009112 28.33° C 52% 1021.7 hPa 0 mm 11.62 m/s, 86° - -
1788008812 28.33° C 52% 1021.7 hPa 0 mm 6.71 m/s, 78° - -
1788008511 28.33° C 52% 1021.7 hPa 0 mm 2.68 m/s, 188° - -
1788008211 28.33° C 52% 1022 hPa 0 mm 8.49 m/s, 90° - -
1788007911 28.33° C 51% 1022 hPa 0 mm 6.26 m/s, 57° - -
1788007611 28.33° C 54% 1022.4 hPa 0 mm 4.92 m/s, 50° - -
1788007311 28.33° C 53% 1022.4 hPa 0 mm 4.47 m/s, 0° - -
1788007011 28.33° C 52% 1022.4 hPa 0 mm 3.58 m/s, 348° - -
1788006711 27.78° C 54% 1022.4 hPa 0 mm 11.18 m/s, 14° - -
1788006411 28.33° C 53% 1022.4 hPa 0 mm 11.62 m/s, 30° - -
1788006110 28.33° C 55% 1022.7 hPa 0 mm 4.47 m/s, 24° - -
1788005810 27.78° C 54% 1022.7 hPa 0 mm 10.73 m/s, 17° - -
1788005510 27.78° C 57% 1022.7 hPa 0 mm 6.71 m/s, 334° - -
1788005210 28.33° C 52% 1022.7 hPa 0 mm 6.26 m/s, 75° - -

* Rain latest hour (hover to see other rain measurements)
** Current wind speed in m/s (hover to see current wind gust speed)